Regional Weather Roundup
Issued by NWS

Home | Current Version | Previous Version | Text Only | Print | Product List | Glossary Off
Versions: 1 2 3 4 5 6 7 8 9 10 11 12 13 14 15 16 17 18 19 20 21 22 23 24 25 26 27 28 29 30 31 32 33 34 35 36 37 38 39 40 41 42 43 44 45 46 47 48 49 50

191
ASUS45 KSLC 300110
RWRUT

UTAH REGIONAL WEATHER ROUNDUP
NATIONAL WEATHER SERVICE SALT LAKE CITY UT
700 PM MDT SUN MAY 29 2016

UTZ001>011-023>025-300200-

NORTHERN UTAH

CITY           SKY/WX    TMP DP  RH WIND       PRES   REMARKS
BRIGHAM CITY     N/A     76  36  23 S5        29.98S
HILL AFB       CLOUDY    72  42  32 SW9       30.01S
LOGAN          PTSUNNY   72  49  44 NW3       29.99R
OGDEN          CLOUDY    75  38  26 SW8       29.99R
PROVO AIRPORT  PTSUNNY   70  45  40 NW15      30.05R
SALT LAKE CITY CLOUDY    71  42  35 SE21G28   30.01R
VERNAL         CLOUDY    66  40  38 NE7       30.09F
WENDOVER       PTSUNNY   73  34  23 W9G25     29.98S
HEBER CITY     CLOUDY    63  36  36 W10       30.09R
WEST JORDAN    CLOUDY    64  43  45 SE14G28   30.07R

$$

UTZ012>022-026-027-300200-

SOUTHERN/CENTRAL UTAH

CITY           SKY/WX    TMP DP  RH WIND       PRES   REMARKS
BLANDING       MOSUNNY   77  20  12 W6        30.11F
BRYCE CANYON   CLOUDY    64  24  21 NE3       30.17S
CEDAR CITY     MOSUNNY   76  25  15 W9        30.02R
DELTA          CLOUDY    70  32  24 S10       30.04R
HANKSVILLE     MOSUNNY   82  30  15 NW14      29.96S
MILFORD        PTSUNNY   71  36  27 NE16      30.04R
MOAB/CYNLANDS  MOSUNNY   82  25  12 CALM      29.94F
PRICE          CLOUDY    68  31  25 NW8       30.10F
ST GEORGE      CLOUDY    90  30  12 W12G17    29.87R
KANAB          SUNNY     82  18   9 SW12      30.00F

$$

REGIONAL REPORTS     COLORADO/ARIZONA

CITY           SKY/WX    TMP DP  RH WIND       PRES   REMARKS
CRAIG, CO      CLOUDY    60  43  53 N14       30.18R
GRAND JUNCTION CLOUDY    74  29  19 S10       30.02F
RIFLE          CLOUDY    68  36  30 W5        30.10F
MONTROSE       CLOUDY    70  33  25 E5        30.11F
CORTEZ         SUNNY     76  21  12 SW7       30.05F
PAGE, AZ       SUNNY     86  11   6 S9        29.91F
GRAND CANYON   SUNNY     74  15  10 SW12G17   30.11F
KINGMAN        SUNNY     83  20   9 SW18G25   29.93F
FLAGSTAFF      SUNNY     68  10  10 SW14      30.15S

$$

REGIONAL REPORTS    NEVADA/IDAHO/WYOMING

CITY           SKY/WX    TMP DP  RH WIND       PRES   REMARKS
LAS VEGAS, NV  MOSUNNY   91  20   7 W3        29.79F
ELY            PTSUNNY   66  37  34 S8        30.11S
ELKO           PTSUNNY   75  34  22 W10       29.99F
POCATELLO, ID  CLOUDY    66  40  38 S16       30.01F
BURLEY         PTSUNNY   69  46  43 SE6       29.98S
EVANSTON, WY   CLOUDY    60  40  47 S12       30.15S
ROCK SPRINGS   CLOUDY    60  35  39 SW13      30.14F
KEMMERER       LGT RAIN  52  43  71 S10       30.17S

$$




USA.gov is the U.S. government's official web portal to all federal, state and local government web resources and services.